Погода в Евлахе

Погода в Евлахе : погода сейчас, прогноз погоды и архив. Всё, что Вы хотите узнать о погоде в Евлахе!

Поиск расширенной информации на нашем сайте:

Другие новости

Новости СМИ2

Главная страница сайта

Новости сайта

02.10.2013

Напоминаем, что на нашем новом сайте вы можете получить высокодетализированные прогнозы погоды по пунктам России, СНГ и мира (включающие важные для авиации метеовеличины, такие как направление и скорость ветра, видимость, явления погоды, количество и форма облачности, нижняя и верхняя граница облачности), а также ознакомиться с разнообразными материалами по авиационной метеорологии и подборкой полезных ссылок на эту тему.

Сайт Метеоцентр.Азия посвящён разработке технологий оптимизации авиаметеорологического обслуживания, включая проектирование и перспективное создание нескольких автоматизированных авиаметеорологических систем:
- система выпуска высокодетальных прогностических карт явлений погоды для нижнего воздушного пространства по России и ближнему зарубежью;
- система верификации прогнозов TAF (выпускаемых синоптиками официальных АМСГ РФ и ближнего зарубежья) и AUTOTAF (выпускаемых сайтом Метеоцентр.Азия) - выявление ошибок, онлайн-сопоставление с фактической погодой METAR, автоматическое внесение коррективов в прогнозы при резком отклонении фактической погоды от прогноза, подсчёт оправдываемости прогнозов по элементам и в целом;
- система обработки, анализа и отображения авиаметеорологической информации для применения провайдерами метеорологической информации.


Погода в Евлахе - сегодня

Время (UTC), дата Ветер
(°,м/с) 
Видим.   Явления Облачность Т
(°С)
Тd
(°С)
f(%) Тe
(°С)
Pmin
(гПа)
dP
(гПа)
Po
(мм)
O2
(г/м3)
Тmin Tmax R s Состояние
почвы
12 26.03.17 140 (ЮВ) 20000 м    ясно 
+16.9 +4.1 43 +18  1013.7  -2.8  759  287           
15 26.03.17 160 (Ю) 20000 м    ясно 
+15.7 +4.6 48 +16  1013.3  -0.4  759  288           
21 26.03.17 150 (ЮВ) 20000 м    ясно 
+6.7 +3.6 81 +8  1014.5  760  298           
00 27.03.17 270 (З) 20000 м    ясно 
+4.8 +2.8 87 +4  1014.3  -0.2  759  300           
03 27.03.17 050 (СВ) 20000 м    ясно 
+5.1 +3.2 88 +5  1013.6  -0.7  759  300           
09 27.03.17 030 (СВ) 20000 м    ясно 
+20.1 +3.8 34 +20  1011.2  -2.6  757  284           
12 27.03.17 140 (ЮВ) 20000 м    3/0 верхняя 
[Ci fib]
+23.7 +1.3 23 +24  1008.6  -2.6  755  280           
15 27.03.17 190 (Ю) 20000 м    ясно 
+21.2 +3.8 32 +21  1007.9  -0.7  755  282           
18 27.03.17 350 (С) 20000 м    4/0 средняя 
[Ac trans]
+13.9 +6.2 60 +14  1009.9  756  289    +24.4       
21 27.03.17 050 (СВ) 20000 м    6/0 средняя 
[Ac trans]
+12.4 +4.8 60 +12  1010.3  0.3  756  291           
00 28.03.17 140 (ЮВ) 20000 м    10/10 600 м 
[Sc]
+9.3 +5.6 78 +8  1010.7  0.4  757  294           
06 28.03.17 340 (С) 10  20000 м  слаб. ливневой дождь  10/5 1000 м кучево-дожд., средняя 
[Cb calv|Ac trans]
+10.2 +2.5 59 +8  1017.6  4.3  762  296           
09 28.03.17 350 (С) 20000 м  {ливн. осадки}  10/3 1000 м кучево-дожд., средняя 
[Cb calv|Ac trans]
+10.9 +2.9 58 +9  1017.5  -0.1  762  295           
12 28.03.17 300 (СЗ) 20000 м  {ливн. осадки}  10/3 1000 м кучево-дожд., средняя 
[Cb calv|Ac trans]
+14.8 -0.9 34 +14  1016.8  -0.7  761  291           
15 28.03.17 230 (ЮЗ) 20000 м    10/3 1000 м кучево-дожд., средняя 
[Cb calv|Ac trans]
+14.1 +0.4 39 +15  1017.1  0.3  761  292      0.6     
21 28.03.17 330 (СЗ) 11  20000 м    ясно 
+8.3 -2.7 46 +5  1018.4  -0.4  762  298           
00 29.03.17 320 (СЗ) 10  20000 м    ясно 
+7.4 -2.7 49 +4  1017.1  -1.3  761  299           
03 29.03.17 360 (С) 10  20000 м    ясно 
+7.1 -2.7 50 +4  1017.5  0.4  762  299           
09 29.03.17 020 (С) 20000 м    ясно 
+16.7 -1.3 29 +17  1018.4  -0.3  762  290           
12 29.03.17 350 (С) 20000 м    ясно 
+21.1 -5.7 16 +21  1016.6  -1.7  761  285           
15 29.03.17 340 (С) 20000 м    ясно 
+19.8 -3.8 20 +20  1017.2  0.6  762  287           
21 29.03.17 140 (ЮВ) 20000 м    ясно 
+7.6 +2.1 68 +8  1025.6  4.3  768  301           
00 30.03.17 130 (ЮВ) 20000 м    ясно 
+4.6 +1.5 80 +5  1026  0.4  768  304           
03 30.03.17 130 (ЮВ) 10 км    ясно 
+3.6 +1.5 86 +4  1026.4  0.3  768  305           
06 30.03.17 130 (ЮВ) 20000 м    ясно 
+11.8 +3.2 56 +12  1026.5  0.2  769  296           
Время (UTC), дата Ветер
(°,м/с) 
Видим.   Явления Облачность Т
(°С)
Тd
(°С)
f(%) Тe
(°С)
Pmin
(гПа)
dP
(гПа)
Po
(мм)
O2
(г/м3)
Тmin Tmax R s Состояние
почвы

Для получения пояснительной информации подведите курсор к названию столбца.

ПОГОДА в Евлахе - архив

Всё, что Вы хотите узнать о погоде в Евлахе - удобно и подробно!

Выберите нужную дату (начиная с 1 января 2015* года) и нажмите кнопку "Найти".
Будут отображены архивные сводки погоды по пункту Евлах, начиная с указанной даты.


Отображать данные в формате CSV (для использования в таблицах Excel)


Внимание! Наш архив погоды предназначен исключительно для личного некоммерческого использования в познавательных целях. Если Вам необходимы официальные справки о состоянии погоды (для производственных, юридических, коммерческих и т.п. целей), обращайтесь в органы Росгидромета.

*Примечание: данная дата относится к архиву по метеостанциям СССР (Россия, СНГ, Балтия).
Архив по метеостанциям Зарубежной Европы и Азии (кроме Китая) хранится 10 дней, по другим регионам земного шара (Китай, Африка, Америка, Австралия, Океания) - 1 день.

Евлах - район местоположения метеостанции


Название, широта, долгота, высота метеостанции:
Евлах (АМСГ) 40.6°ш. 47.2°д. 15 м над ур. моря [Азербайджан]

Дополнительная информация

В oтличие oт бoльшинства пoгoдных сайтoв мы публикуем пoдрoбную метеoинфoрмацию в детальнoм прoфессиoнальнoм фoрмате.

Характеристики температуры и влажнoсти вoздуха измеряются на высoте 2 м в тени вдали oт зданий и деревьев.
Скoрoсть ветра измеряется на высoте 10 м (на урoвне рoста челoвека скoрoсть ветра ниже в 1.5-2 раза). Если метеoстанция нахoдится в гoрoде или в лесу, тo скoрoсть ветра занижена на 2-4 м/с пo сравнению с oткрытым местoм. Скoрoсть ветра над акватoриями крупных рек и oзёр, а также на вершинах хoлмoв на 2-5 м/с выше, чем в oбычных услoвиях.
Атмoсфернoе давление в разных тoчках местнoсти мoжет значительнo oтличаться oт давления на метеoстанции, в зависимoсти oт услoвий рельефа (при пoдъёме на 10 м давление пoнижается примернo на 1 мм рт.ст.).